Toul - Rosieres, France

5:36 AM CEST on September 01, 2016 (GMT +0200)
Rosieres Air Base

Weather History for LFSL - March, 2013

Change the Weather History Date:

Thursday, March 28, 2013

  Actual Average (LFSN) Record (LFSN)
Temperature  
Mean Temperature 46 °F -  
Max Temperature 50 °F 56 °F 66 °F (1998)
Min Temperature 37 °F 37 °F 32 °F (2008)
Degree Days  
Heating Degree Days 20    
Moisture  
Dew Point 41 °F    
Average Humidity 80    
Maximum Humidity 93    
Minimum Humidity 66    
Precipitation  
Precipitation 0.00 in - - ()
Sea Level Pressure  
Sea Level Pressure 29.69 in    
Wind  
Wind Speed 2 mph ()    
Max Wind Speed 7 mph    
Max Gust Speed -    
Visibility 5.1 miles    
Events Rain    
Averages and records for this station are not official NWS values.
T = Trace of Precipitation, MM = Missing Value Source: Averaged Metar Reports

Daily Weather History Graph

Daily Weather History Graph

Search for Another Location

Airport or City:

Trip Planner

Search our weather history database for the weather conditions in past years. The results will help you decide how hot, cold, wet, or windy it might be!

Date:

Astronomy

Mar. 28, 2013 Rise Set
Actual Time 6:22 AM CET 7:00 PM CET
Civil Twilight 5:50 AM CET 7:32 PM CET
Nautical Twilight 5:12 AM CET 8:10 PM CET
Astronomical Twilight 4:33 AM CET 8:50 PM CET
Moon 8:46 PM CET (3/28) 6:31 AM CET (3/28)
Length of Visible Light 13h 42m
Length of Day
12h 38m
Full, 99% of the Moon is Illuminated
Mar 28
Full
Apr 3
Last Quarter
Apr 10
New
Apr 18
First Quarter
Apr 25
Full

Hourly Weather History & Observations

Time (CET) Temp. Windchill Dew Point Humidity Pressure Visibility Wind Dir Wind Speed Gust Speed Precip Events Conditions
12:00 AM 48.2 °F - 37.4 °F 66% 29.62 in 6.2 mi NW 2.3 mph - N/A   Unknown
12:30 AM 48.2 °F - 37.4 °F 66% 29.62 in 6.2 mi Calm Calm - N/A   Overcast
1:00 AM 48.2 °F - 37.4 °F 66% 29.62 in 6.2 mi Calm Calm - N/A   Overcast
1:30 AM 48.2 °F - 37.4 °F 66% 29.62 in 6.2 mi Calm Calm - N/A Rain Light Rain
2:00 AM 46.4 °F - 39.2 °F 76% 29.62 in 6.2 mi Calm Calm - N/A Rain Light Rain
2:30 AM 46.4 °F - 41.0 °F 81% 29.62 in 6.2 mi Calm Calm - N/A   Light Drizzle
3:00 AM 46.4 °F - 41.0 °F 81% 29.62 in 6.2 mi ESE 2.3 mph - N/A   Overcast
3:30 AM 46.4 °F - 41.0 °F 81% 29.62 in 6.2 mi Variable 1.2 mph - N/A   Overcast
4:00 AM 46.4 °F - 41.0 °F 81% 29.62 in 6.2 mi Calm Calm - N/A   Overcast
4:30 AM 46.4 °F - 41.0 °F 81% 29.62 in 6.2 mi Calm Calm - N/A   Overcast
5:00 AM 46.4 °F - 41.0 °F 81% 29.62 in 3.1 mi South 2.3 mph - N/A Rain Light Rain
5:30 AM 46.4 °F - 41.0 °F 81% 29.62 in 5.0 mi Calm Calm - N/A Rain Light Rain
6:00 AM 44.6 °F - 41.0 °F 87% 29.62 in 3.1 mi Calm Calm - N/A Rain Light Rain
6:30 AM 44.6 °F - 42.8 °F 93% 29.62 in 3.1 mi Calm Calm - N/A Rain Light Rain
7:00 AM 44.6 °F - 42.8 °F 93% 29.62 in - Calm Calm - N/A   Light Drizzle
7:30 AM 46.4 °F - 44.6 °F 93% 29.62 in - Calm Calm - N/A   Overcast
8:00 AM 46.4 °F 45.2 °F 44.6 °F 93% 29.65 in - NW 3.5 mph - N/A   Overcast
8:30 AM 46.4 °F 45.2 °F 44.6 °F 93% 29.65 in 3.7 mi WNW 3.5 mph - N/A   Overcast
9:00 AM 46.4 °F 45.2 °F 42.8 °F 87% 29.65 in 5.6 mi NW 3.5 mph - N/A Rain Light Rain
9:30 AM 46.4 °F 45.2 °F 41.0 °F 81% 29.65 in 4.3 mi NNW 3.5 mph - N/A Rain Light Rain
10:00 AM 46.4 °F 45.2 °F 42.8 °F 87% 29.65 in 6.2 mi NW 3.5 mph - N/A   Light Drizzle
10:30 AM 46.4 °F 43.5 °F 42.8 °F 87% 29.68 in 4.3 mi NNW 5.8 mph - N/A Rain Light Rain
11:00 AM 46.4 °F 45.2 °F 42.8 °F 87% 29.68 in 3.1 mi NW 3.5 mph - N/A Rain Light Rain
11:30 AM 46.4 °F - 42.8 °F 87% 29.68 in 3.1 mi Variable 2.3 mph - N/A Rain Light Rain
1:00 PM 46.4 °F 42.9 °F 44.6 °F 93% 29.71 in 5.0 mi NW 6.9 mph - N/A Rain Light Rain
1:30 PM 46.4 °F 43.5 °F 44.6 °F 93% 29.71 in 6.2 mi West 5.8 mph - N/A   Mostly Cloudy
2:00 PM 48.2 °F - 42.8 °F 82% 29.71 in 6.2 mi West 5.8 mph - N/A   Overcast
2:30 PM 50.0 °F - 42.8 °F 76% 29.71 in 6.2 mi WSW 4.6 mph - N/A   Overcast
3:00 PM 50.0 °F - 42.8 °F 76% 29.71 in 6.2 mi SW 5.8 mph - N/A   Overcast
4:00 PM 50.0 °F - 41.0 °F 71% 29.71 in 6.2 mi WSW 6.9 mph - N/A   Overcast
4:30 PM 50.0 °F - 41.0 °F 71% 29.71 in 6.2 mi West 4.6 mph - N/A   Overcast
5:00 PM 50.0 °F - 41.0 °F 71% 29.71 in 6.2 mi West 5.8 mph - N/A   Overcast
5:30 PM 50.0 °F - 39.2 °F 66% 29.71 in 6.2 mi West 4.6 mph - N/A   Overcast
6:00 PM 50.0 °F - 39.2 °F 66% 29.74 in 6.2 mi West 4.6 mph - N/A   Overcast
6:30 PM 50.0 °F - 39.2 °F 66% 29.74 in 6.2 mi West 3.5 mph - N/A   Overcast
7:00 PM 48.2 °F - 39.2 °F 71% 29.77 in 6.2 mi WSW 3.5 mph - N/A   Partly Cloudy
7:30 PM 48.2 °F - 39.2 °F 71% 29.77 in 5.6 mi Variable 2.3 mph - N/A   Partly Cloudy
8:00 PM 44.6 °F - 39.2 °F 81% 29.77 in 4.3 mi SW 2.3 mph - N/A   Unknown
8:30 PM 42.8 °F - 39.2 °F 87% 29.77 in 3.1 mi WSW 2.3 mph - N/A   Mist
9:00 PM 42.8 °F 40.1 °F 39.2 °F 87% 29.80 in 3.1 mi SW 4.6 mph - N/A   Mostly Cloudy
9:30 PM 44.6 °F 42.2 °F 39.2 °F 81% 29.80 in 3.7 mi NNW 4.6 mph - N/A   Mostly Cloudy
10:00 PM 42.8 °F - 37.4 °F 81% 29.80 in 3.1 mi NW 2.3 mph - N/A   Mostly Cloudy
10:30 PM 42.8 °F 40.1 °F 37.4 °F 81% 29.80 in 4.3 mi NNW 4.6 mph - N/A   Overcast
11:00 PM 41.0 °F - 35.6 °F 81% 29.77 in 3.1 mi Calm Calm - N/A   Partly Cloudy
11:30 PM 37.4 °F - 33.8 °F 87% 29.77 in - Calm Calm - N/A   Mist